EW9411 Weather Reports


Display with metric or nautical units.
time (UTC)temp
F
wind
direction
speed
MPH
gust
MPH
rain 1hr
in
rain 24hr
in
rain mn
in
humidity
%
barometer
mb
20260831040911 71 267 1.0 3.0 0.01 0.02 0.00 95 1017.4
20260831040622 71 262 2.0 3.0 0.01 0.02 0.00 94 1017.4
20260831040407 71 255 1.0 2.0 0.01 0.02 0.00 94 1017.4
20260831040121 71 255 0.0 2.0 0.01 0.02 0.00 94 1017.4
20260831035930 72 255 0.0 0.0 0.01 0.02 0.00 94 1017.4
20260831035624 72 255 0.0 1.0 0.01 0.02 0.00 95 1017.4
20260831035408 72 255 0.0 2.0 0.01 0.02 0.00 95 1017.4
20260831035121 72 255 0.0 2.0 0.01 0.02 0.00 95 1017.4
20260831034927 72 255 0.0 2.0 0.01 0.02 0.02 95 1017.4
20260831034625 72 255 1.0 2.0 0.01 0.02 0.02 94 1017.4
20260831034429 72 255 1.0 2.0 0.01 0.02 0.02 94 1017.4
20260831034123 72 255 1.0 2.0 0.01 0.02 0.02 94 1017.4
20260831033907 72 255 1.0 2.0 0.01 0.02 0.02 94 1017.4
20260831033621 72 255 0.0 1.0 0.01 0.02 0.02 94 1017.5
20260831033406 72 255 0.0 0.0 0.01 0.02 0.02 94 1017.5
20260831033126 72 255 0.0 1.0 0.01 0.02 0.02 94 1017.5
20260831032910 72 255 0.0 1.0 0.01 0.02 0.02 94 1017.5
20260831032624 72 255 0.0 1.0 0.01 0.02 0.02 94 1017.6
20260831032409 72 255 1.0 1.0 0.01 0.02 0.02 94 1017.6
20260831032123 72 255 0.0 1.0 0.01 0.02 0.02 94 1017.6
20260831031912 73 255 0.0 1.0 0.01 0.02 0.02 94 1017.6
20260831031627 73 255 0.0 1.0 0.01 0.02 0.02 95 1017.7
20260831031417 73 255 0.0 1.0 0.00 0.01 0.01 95 1017.7
20260831031110 72 255 0.0 1.0 0.00 0.01 0.01 94 1017.7
20260831030915 72 255 0.0 1.0 0.00 0.01 0.01 94 1017.6
20260831030609 72 255 0.0 2.0 0.00 0.01 0.01 94 1017.6
20260831030421 73 255 0.0 2.0 0.00 0.01 0.01 94 1017.6
20260831030113 73 255 1.0 2.0 0.00 0.01 0.01 94 1017.7
20260831025918 73 255 1.0 2.0 0.00 0.01 0.01 94 1017.7
20260831025612 73 255 1.0 1.0 0.00 0.01 0.01 93 1017.8
20260831025417 73 255 1.0 1.0 0.00 0.01 0.01 93 1017.7
20260831025138 73 255 0.0 1.0 0.00 0.01 0.01 93 1017.7
20260831024921 73 255 0.0 1.0 0.00 0.01 0.01 93 1017.8
20260831024634 73 255 0.0 1.0 0.00 0.01 0.01 93 1017.8
20260831024424 73 255 0.0 1.0 0.00 0.01 0.01 93 1017.8
20260831024116 73 255 0.0 1.0 0.00 0.01 0.01 93 1017.7
20260831023921 73 255 0.0 1.0 0.00 0.01 0.01 93 1017.7
20260831023642 73 255 0.0 1.0 0.00 0.01 0.01 92 1017.7
20260831023443 73 255 0.0 1.0 0.00 0.01 0.01 92 1017.7
20260831023120 73 255 0.0 1.0 0.00 0.01 0.01 92 1017.7
20260831022926 73 255 0.0 1.0 0.00 0.01 0.01 92 1017.7
20260831022624 73 255 0.0 1.0 0.00 0.01 0.01 92 1017.8
20260831022425 73 255 0.0 1.0 0.00 0.01 0.01 92 1017.9
20260831022123 73 255 0.0 1.0 0.00 0.01 0.01 92 1017.9
20260831021923 73 255 0.0 2.0 0.00 0.01 0.01 92 1018.0
20260831021627 73 255 0.0 2.0 0.00 0.01 0.01 92 1017.9
20260831021407 73 255 1.0 2.0 0.00 0.01 0.01 92 1017.9
20260831021105 73 255 0.0 4.0 0.00 0.01 0.01 91 1017.8
20260831020952 73 255 0.0 4.0 0.00 0.01 0.01 91 1017.8
20260831020630 73 255 1.0 4.0 0.00 0.01 0.01 91 1017.9
20260831020409 73 255 2.0 4.0 0.00 0.01 0.01 91 1017.9
20260831020132 73 256 1.0 3.0 0.00 0.01 0.01 91 1018.0
20260831015912 73 256 1.0 4.0 0.00 0.01 0.01 92 1018.1
20260831015631 73 256 1.0 6.0 0.00 0.01 0.01 92 1018.1
20260831015416 73 256 1.0 6.0 0.00 0.01 0.01 92 1018.1
20260831015113 73 254 1.0 6.0 0.00 0.01 0.01 92 1018.1
20260831014914 73 248 1.0 3.0 0.00 0.01 0.01 93 1018.1
20260831014612 73 241 1.0 3.0 0.01 0.01 0.01 94 1018.1
20260831014411 73 241 1.0 3.0 0.01 0.01 0.01 94 1018.0
20260831014116 73 229 1.0 3.0 0.01 0.01 0.01 93 1018.0
20260831013936 73 229 1.0 3.0 0.01 0.01 0.01 93 1017.9
20260831013612 73 229 0.0 2.0 0.01 0.01 0.01 94 1017.8
20260831013413 73 229 0.0 2.0 0.01 0.01 0.01 93 1017.8
20260831013117 73 229 0.0 3.0 0.01 0.01 0.01 93 1017.8
20260831012917 73 229 1.0 3.0 0.01 0.01 0.01 93 1017.9
20260831012614 73 229 1.0 3.0 0.01 0.01 0.01 93 1017.8
20260831012442 74 229 1.0 3.0 0.01 0.01 0.01 94 1017.8
20260831012119 74 229 1.0 2.0 0.01 0.01 0.01 94 1017.7
20260831011919 74 229 0.0 2.0 0.01 0.01 0.01 94 1017.7
20260831011617 74 229 0.0 1.0 0.01 0.01 0.01 94 1017.6
20260831011424 74 229 0.0 1.0 0.01 0.01 0.01 94 1017.6
20260831011120 74 229 0.0 1.0 0.01 0.01 0.01 93 1017.6
20260831010921 74 229 0.0 1.0 0.01 0.01 0.01 93 1017.6
20260831010646 74 229 0.0 1.0 0.01 0.01 0.01 93 1017.6
20260831010446 74 229 0.0 1.0 0.01 0.01 0.01 93 1017.5
20260831010119 74 229 0.0 1.0 0.01 0.01 0.01 93 1017.5
20260831005929 74 229 0.0 1.0 0.01 0.01 0.01 93 1017.5
20260831005622 74 229 0.0 1.0 0.01 0.01 0.01 93 1017.4
20260831005407 74 229 0.0 1.0 0.01 0.01 0.01 93 1017.3
20260831005121 74 229 0.0 0.0 0.01 0.01 0.01 93 1017.3
20260831004905 74 229 0.0 0.0 0.01 0.01 0.01 93 1017.3
20260831004618 74 229 0.0 0.0 0.00 0.00 0.00 92 1017.3
20260831004429 74 229 0.0 0.0 0.00 0.00 0.00 92 1017.3
20260831004149 74 229 0.0 0.0 0.00 0.00 0.00 92 1017.2
20260831003931 74 229 0.0 0.0 0.00 0.00 0.00 92 1017.2
20260831003625 75 229 0.0 0.0 0.00 0.00 0.00 91 1017.2
20260831003409 75 229 0.0 0.0 0.00 0.00 0.00 91 1017.1
20260831003123 75 229 0.0 0.0 0.00 0.00 0.00 91 1017.1
20260831002906 75 229 0.0 0.0 0.00 0.00 0.00 91 1017.1
20260831002626 75 229 0.0 0.0 0.00 0.00 0.00 91 1017.1
20260831002411 75 229 0.0 1.0 0.00 0.00 0.00 91 1017.0
20260831002125 75 229 0.0 1.0 0.00 0.00 0.00 91 1017.0
20260831001909 75 229 0.0 1.0 0.00 0.00 0.00 90 1017.0
20260831001630 75 229 0.0 1.0 0.00 0.00 0.00 90 1017.0
20260831001413 75 229 0.0 1.0 0.00 0.00 0.00 89 1017.0
20260831001107 76 229 0.0 0.0 0.00 0.00 0.00 89 1017.0
20260831000911 76 229 0.0 0.0 0.00 0.00 0.00 89 1016.9
20260831000630 76 229 0.0 0.0 0.00 0.00 0.00 88 1016.9
20260831000435 76 229 0.0 0.0 0.00 0.00 0.00 88 1016.9
20260831000107 76 229 0.0 0.0 0.00 0.00 0.00 87 1016.8
20260830235911 76 229 0.0 0.0 0.00 0.00 0.00 87 1016.8
20260830235611 76 229 0.0 0.0 0.00 0.00 0.00 86 1016.7
20260830235436 76 229 0.0 0.0 0.00 0.00 0.00 86 1016.7
20260830235109 77 229 0.0 0.0 0.00 0.00 0.00 85 1016.7
20260830234920 77 229 0.0 0.0 0.00 0.00 0.00 85 1016.7
20260830234612 77 229 0.0 1.0 0.00 0.00 0.00 84 1016.6
20260830234417 77 229 0.0 1.0 0.00 0.00 0.00 84 1016.6
20260830234109 77 229 0.0 1.0 0.00 0.00 0.00 84 1016.5
20260830233914 77 229 0.0 1.0 0.00 0.00 0.00 84 1016.5
20260830233616 78 229 0.0 2.0 0.00 0.00 0.00 84 1016.5
20260830233419 78 229 0.0 2.0 0.00 0.00 0.00 84 1016.5
20260830233113 78 229 0.0 2.0 0.00 0.00 0.00 83 1016.5
20260830232918 78 229 1.0 2.0 0.00 0.00 0.00 83 1016.5
20260830232612 78 229 1.0 2.0 0.00 0.00 0.00 82 1016.5
20260830232422 78 229 1.0 2.0 0.00 0.00 0.00 82 1016.5
20260830232115 79 229 0.0 2.0 0.00 0.00 0.00 81 1016.5
20260830231919 79 229 1.0 3.0 0.00 0.00 0.00 81 1016.5
20260830231611 79 229 1.0 3.0 0.00 0.00 0.00 82 1016.5
20260830231421 78 229 1.0 3.0 0.00 0.00 0.00 82 1016.5
20260830231115 78 229 0.0 2.0 0.00 0.00 0.00 81 1016.4
20260830230919 79 229 1.0 2.0 0.00 0.00 0.00 80 1016.4
20260830230613 79 229 1.0 2.0 0.00 0.00 0.00 80 1016.5
20260830230418 79 229 1.0 2.0 0.00 0.00 0.00 80 1016.5
20260830230110 79 229 1.0 3.0 0.00 0.00 0.00 80 1016.5
20260830225937 79 229 1.0 4.0 0.00 0.00 0.00 80 1016.5
20260830225614 79 229 1.0 4.0 0.00 0.00 0.00 80 1016.6
20260830225414 78 229 1.0 4.0 0.00 0.00 0.00 81 1016.5
20260830225118 79 229 1.0 2.0 0.00 0.00 0.00 80 1016.6
20260830224919 79 229 1.0 3.0 0.00 0.00 0.00 80 1016.6
20260830224616 79 229 1.0 3.0 0.00 0.00 0.00 80 1016.6
20260830224417 79 229 1.0 3.0 0.00 0.00 0.00 80 1016.6
20260830224113 79 229 2.0 3.0 0.00 0.00 0.00 80 1016.6
20260830223920 79 229 1.0 3.0 0.00 0.00 0.00 80 1016.6
20260830223636 79 229 0.0 3.0 0.00 0.00 0.00 80 1016.6
20260830223416 79 229 1.0 3.0 0.00 0.00 0.00 80 1016.6
20260830223112 79 230 2.0 3.0 0.00 0.00 0.00 79 1016.6
20260830222919 79 230 1.0 3.0 0.00 0.00 0.00 79 1016.5
20260830222617 79 230 1.0 3.0 0.00 0.00 0.00 79 1016.5
20260830222417 80 230 0.0 3.0 0.00 0.00 0.00 79 1016.5
20260830222115 79 230 1.0 4.0 0.00 0.00 0.00 79 1016.5
20260830221924 79 229 1.0 4.0 0.00 0.00 0.00 80 1016.6
20260830221620 79 230 1.0 4.0 0.00 0.00 0.00 80 1016.6
20260830221419 79 230 2.0 4.0 0.00 0.00 0.00 80 1016.6
20260830221117 79 230 2.0 4.0 0.00 0.00 0.00 79 1016.5
20260830220918 79 230 2.0 4.0 0.00 0.00 0.00 79 1016.6
20260830220643 79 230 2.0 4.0 0.00 0.00 0.00 78 1016.6
20260830220423 80 230 1.0 3.0 0.00 0.00 0.00 79 1016.7
20260830220148 79 230 1.0 6.0 0.00 0.00 0.00 80 1016.6
20260830215908 79 230 1.0 6.0 0.00 0.00 0.00 80 1016.6
20260830215605 79 230 3.0 6.0 0.00 0.00 0.00 80 1016.7
20260830215406 79 229 3.0 6.0 0.00 0.00 0.00 80 1016.7
20260830215129 79 216 2.0 8.0 0.00 0.00 0.00 80 1016.6
20260830214930 79 216 3.0 8.0 0.00 0.00 0.00 80 1016.6
20260830214607 79 223 3.0 8.0 0.00 0.00 0.00 79 1016.7
20260830214406 79 243 3.0 8.0 0.00 0.00 0.00 79 1016.8
20260830214124 79 210 4.0 8.0 0.00 0.00 0.00 79 1016.7
20260830213931 79 221 2.0 7.0 0.00 0.00 0.00 80 1016.7
20260830213629 79 222 3.0 7.0 0.00 0.00 0.00 79 1016.6
20260830213409 79 216 1.0 7.0 0.00 0.00 0.00 80 1016.6
20260830213107 79 207 4.0 7.0 0.00 0.00 0.00 78 1016.6
20260830212908 79 248 5.0 8.0 0.00 0.00 0.00 78 1016.6
20260830212606 80 202 4.0 7.0 0.00 0.00 0.00 78 1016.5
20260830212432 80 214 3.0 7.0 0.00 0.00 0.00 79 1016.5
20260830212109 79 208 2.0 8.0 0.00 0.00 0.00 79 1016.4
20260830211909 79 244 3.0 8.0 0.00 0.00 0.00 79 1016.4
20260830211606 79 245 4.0 11.0 0.00 0.00 0.00 79 1016.3
20260830211407 79 178 5.0 11.0 0.00 0.00 0.00 78 1016.3
20260830211112 80 202 6.0 11.0 0.00 0.00 0.00 78 1016.3
20260830210911 80 239 4.0 9.0 0.00 0.00 0.00 78 1016.3
20260830210630 80 206 3.0 9.0 0.00 0.00 0.00 79 1016.3
20260830210409 80 200 5.0 9.0 0.00 0.00 0.00 79 1016.4
20260830210114 80 200 4.0 7.0 0.00 0.00 0.00 79 1016.4
20260830205914 80 210 4.0 7.0 0.00 0.00 0.00 79 1016.4
20260830205633 80 233 2.0 7.0 0.00 0.00 0.00 80 1016.5
20260830205418 80 233 3.0 7.0 0.00 0.00 0.00 79 1016.5
20260830205116 80 239 4.0 8.0 0.00 0.00 0.00 78 1016.5
20260830204917 80 221 3.0 7.0 0.00 0.00 0.00 79 1016.6
20260830204642 80 215 2.0 8.0 0.00 0.00 0.00 80 1016.6
20260830204420 79 218 4.0 8.0 0.00 0.00 0.00 80 1016.6
20260830204117 79 202 3.0 8.0 0.00 0.00 0.00 80 1016.7
20260830203918 79 246 5.0 8.0 0.00 0.00 0.00 80 1016.8
20260830203643 79 206 4.0 11.0 0.00 0.00 0.00 80 1016.8
20260830203421 79 212 4.0 11.0 0.00 0.00 0.00 79 1016.8
20260830203119 79 233 6.0 11.0 0.00 0.00 0.00 78 1016.7
20260830202919 79 200 6.0 11.0 0.00 0.00 0.00 79 1016.7
20260830202616 79 226 5.0 11.0 0.00 0.00 0.00 80 1016.9
20260830202423 79 233 5.0 11.0 0.00 0.00 0.00 80 1016.9
20260830202121 79 232 5.0 10.0 0.00 0.00 0.00 79 1016.9
20260830201942 79 222 3.0 15.0 0.00 0.00 0.00 79 1016.9
20260830201625 80 237 4.0 15.0 0.00 0.00 0.00 77 1017.0
20260830201424 80 220 5.0 15.0 0.00 0.00 0.00 77 1016.9
20260830201123 81 239 3.0 8.0 0.00 0.00 0.00 78 1016.9
20260830200949 81 239 2.0 8.0 0.00 0.00 0.00 79 1016.9
20260830200606 80 196 3.0 11.0 0.00 0.00 0.00 79 1016.9
20260830200452 79 232 3.0 11.0 0.00 0.00 0.00 80 1016.9
20260830200124 79 236 6.0 11.0 0.00 0.00 0.00 79 1017.0
20260830195907 79 242 7.0 11.0 0.00 0.00 0.00 79 1017.1
20260830195619 79 297 3.0 9.0 0.00 0.00 0.00 80 1017.1
20260830195423 79 248 3.0 9.0 0.00 0.00 0.00 80 1017.2
20260830195116 79 222 4.0 12.0 0.00 0.00 0.00 79 1017.2
20260830194927 79 239 3.0 12.0 0.00 0.00 0.00 79 1017.2
20260830194619 80 195 5.0 12.0 0.00 0.00 0.00 78 1017.3
20260830194423 80 237 5.0 12.0 0.00 0.00 0.00 79 1017.2
20260830194117 80 198 4.0 8.0 0.00 0.00 0.00 79 1017.3
20260830193929 79 206 3.0 8.0 0.00 0.00 0.00 80 1017.3
20260830193621 79 258 3.0 8.0 0.00 0.00 0.00 79 1017.3
20260830193425 79 212 3.0 6.0 0.00 0.00 0.00 80 1017.3
20260830193119 79 285 2.0 7.0 0.00 0.00 0.00 80 1017.4
20260830192929 79 244 2.0 7.0 0.00 0.00 0.00 80 1017.5
20260830192624 79 214 3.0 7.0 0.00 0.00 0.00 80 1017.5
20260830192408 78 239 2.0 6.0 0.00 0.00 0.00 80 1017.5
20260830192122 79 231 3.0 7.0 0.00 0.00 0.00 80 1017.5
20260830191906 79 204 2.0 7.0 0.00 0.00 0.00 81 1017.4
20260830191625 78 202 2.0 9.0 0.00 0.00 0.00 82 1017.6
20260830191431 78 200 4.0 9.0 0.00 0.00 0.00 82 1017.6
20260830191130 78 251 2.0 9.0 0.00 0.00 0.00 81 1017.6
20260830190908 78 246 4.0 9.0 0.00 0.00 0.00 81 1017.7
20260830190629 78 247 2.0 9.0 0.00 0.00 0.00 81 1017.8
20260830190413 78 247 4.0 9.0 0.00 0.00 0.00 81 1018.0
20260830190106 77 252 2.0 9.0 0.00 0.00 0.00 82 1018.0
20260830185916 77 250 5.0 11.0 0.00 0.00 0.00 81 1017.9
20260830185611 77 244 2.0 11.0 0.00 0.00 0.00 82 1017.9
20260830185415 77 191 5.0 11.0 0.00 0.00 0.00 82 1018.0
20260830185109 78 237 6.0 11.0 0.00 0.00 0.00 80 1017.9
20260830184913 78 206 4.0 9.0 0.00 0.00 0.00 80 1018.0
20260830184614 78 224 4.0 9.0 0.00 0.00 0.00 80 1018.0
20260830184417 78 223 2.0 7.0 0.00 0.00 0.00 82 1018.1
20260830184111 78 218 3.0 7.0 0.00 0.00 0.00 82 1018.1
20260830183916 77 187 5.0 7.0 0.00 0.00 0.00 81 1018.2
20260830183609 77 241 2.0 12.0 0.00 0.00 0.00 83 1018.3
20260830183420 76 241 3.0 12.0 0.00 0.00 0.00 83 1017.8
20260830183113 76 222 5.0 12.0 0.00 0.00 0.00 83 1018.1
20260830182918 76 250 8.0 12.0 0.00 0.00 0.00 82 1018.4
20260830182611 76 204 4.0 11.0 0.00 0.00 0.00 82 1018.3
20260830182414 76 185 6.0 11.0 0.00 0.00 0.00 82 1018.4
20260830182108 76 223 8.0 11.0 0.00 0.00 0.00 81 1018.5
20260830181918 77 210 6.0 9.0 0.00 0.00 0.00 82 1018.5
20260830181611 76 228 4.0 10.0 0.00 0.00 0.00 82 1018.5
20260830181416 77 266 5.0 16.0 0.00 0.00 0.00 82 1018.5
20260830181110 76 191 4.0 16.0 0.00 0.00 0.00 82 1018.5
20260830180921 76 235 6.0 16.0 0.00 0.00 0.00 82 1018.5
20260830180613 76 238 5.0 11.0 0.00 0.00 0.00 82 1018.6
20260830180417 76 256 4.0 11.0 0.00 0.00 0.00 81 1018.7
20260830180110 76 214 5.0 11.0 0.00 0.00 0.00 82 1018.7
20260830175914 76 241 7.0 12.0 0.00 0.00 0.00 81 1018.7
20260830175635 76 195 4.0 12.0 0.00 0.00 0.00 82 1018.7
20260830175418 76 237 6.0 12.0 0.00 0.00 0.00 81 1018.6
20260830175111 77 228 7.0 10.0 0.00 0.00 0.00 80 1018.6
20260830174922 77 212 5.0 10.0 0.00 0.00 0.00 80 1018.7
20260830174616 77 220 5.0 9.0 0.00 0.00 0.00 80 1018.9
20260830174436 77 220 3.0 8.0 0.00 0.00 0.00 79 1018.9
20260830174112 77 207 3.0 8.0 0.00 0.00 0.00 80 1018.9
20260830173919 77 192 1.0 8.0 0.00 0.00 0.00 82 1018.8
20260830173617 76 193 5.0 9.0 0.00 0.00 0.00 80 1018.9
20260830173438 76 248 3.0 9.0 0.00 0.00 0.00 81 1018.9
20260830173121 76 202 3.0 10.0 0.00 0.00 0.00 81 1018.9
20260830172922 76 189 6.0 10.0 0.00 0.00 0.00 80 1018.9
20260830172618 76 202 6.0 10.0 0.00 0.00 0.00 80 1018.9
20260830172419 76 193 6.0 10.0 0.00 0.00 0.00 79 1018.9
20260830172116 77 189 5.0 11.0 0.00 0.00 0.00 79 1019.0
20260830171923 77 212 3.0 11.0 0.00 0.00 0.00 80 1019.0
20260830171619 76 254 4.0 11.0 0.00 0.00 0.00 80 1019.0
20260830171420 76 201 4.0 11.0 0.00 0.00 0.00 80 1019.0
20260830171145 76 207 4.0 13.0 0.00 0.00 0.00 80 1019.1
20260830170925 76 246 4.0 13.0 0.00 0.00 0.00 79 1019.1
20260830170623 76 234 7.0 13.0 0.00 0.00 0.00 78 1019.1
20260830170450 76 234 6.0 13.0 0.00 0.00 0.00 79 1019.1
20260830170105 76 190 6.0 12.0 0.00 0.00 0.00 78 1019.1
20260830165946 76 217 4.0 12.0 0.00 0.00 0.00 79 1019.0
20260830165629 75 204 6.0 12.0 0.00 0.00 0.00 80 1019.0
20260830165429 75 196 4.0 9.0 0.00 0.00 0.00 81 1019.0
20260830165106 74 194 4.0 11.0 0.00 0.00 0.00 81 1019.0
20260830164906 74 147 4.0 11.0 0.00 0.00 0.00 80 1019.1
20260830164631 74 221 6.0 11.0 0.00 0.00 0.00 80 1019.2
20260830164411 74 208 6.0 11.0 0.00 0.00 0.00 80 1019.2
20260830164108 74 216 7.0 11.0 0.00 0.00 0.00 79 1019.2
20260830163909 74 205 8.0 13.0 0.00 0.00 0.00 78 1019.2
20260830163612 75 222 3.0 9.0 0.00 0.00 0.00 78 1019.2
20260830163413 74 218 4.0 9.0 0.00 0.00 0.00 78 1019.2
20260830163110 74 240 4.0 9.0 0.00 0.00 0.00 78 1019.1
20260830162937 74 247 6.0 9.0 0.00 0.00 0.00 78 1019.1
20260830162614 74 242 4.0 7.0 0.00 0.00 0.00 78 1019.1
20260830162413 74 196 4.0 8.0 0.00 0.00 0.00 77 1019.1
20260830162111 74 193 5.0 11.0 0.00 0.00 0.00 77 1019.3
20260830161911 75 206 4.0 11.0 0.00 0.00 0.00 77 1019.2
20260830161636 75 216 5.0 11.0 0.00 0.00 0.00 76 1019.2
20260830161415 75 241 5.0 11.0 0.00 0.00 0.00 76 1019.2
20260830161111 75 201 4.0 9.0 0.00 0.00 0.00 77 1019.3
20260830160918 75 252 4.0 9.0 0.00 0.00 0.00 77 1019.3
20260830160615 75 246 5.0 9.0 0.00 0.00 0.00 75 1019.5
20260830160415 75 210 6.0 11.0 0.00 0.00 0.00 75 1019.6
20260830160113 75 245 4.0 11.0 0.00 0.00 0.00 74 1019.6
20260830155913 75 235 5.0 11.0 0.00 0.00 0.00 73 1019.7
20260830155617 75 250 5.0 10.0 0.00 0.00 0.00 72 1019.7
20260830155417 76 245 6.0 13.0 0.00 0.00 0.00 72 1019.8
20260830155114 76 225 4.0 13.0 0.00 0.00 0.00 72 1019.7
20260830154915 76 212 4.0 13.0 0.00 0.00 0.00 72 1019.7
20260830154611 76 247 6.0 11.0 0.00 0.00 0.00 71 1019.8
20260830154418 76 210 7.0 11.0 0.00 0.00 0.00 71 1019.8
20260830154116 76 219 4.0 10.0 0.00 0.00 0.00 71 1019.8
20260830153917 76 245 3.0 10.0 0.00 0.00 0.00 72 1019.8
20260830153615 75 216 6.0 10.0 0.00 0.00 0.00 71 1019.8
20260830153415 75 207 6.0 11.0 0.00 0.00 0.00 71 1019.7
20260830153112 75 240 5.0 12.0 0.00 0.00 0.00 71 1019.7
20260830152916 75 171 4.0 12.0 0.00 0.00 0.00 71 1019.7
20260830152614 75 229 3.0 12.0 0.00 0.00 0.00 70 1019.8
20260830152414 75 209 8.0 12.0 0.00 0.00 0.00 69 1019.8
20260830152112 76 200 5.0 12.0 0.00 0.00 0.00 69 1019.9
20260830151912 76 198 3.0 10.0 0.00 0.00 0.00 72 1019.9
20260830151616 75 214 5.0 10.0 0.00 0.00 0.00 69 1019.9
20260830151414 75 198 4.0 10.0 0.00 0.00 0.00 69 1019.9
20260830151113 75 232 6.0 10.0 0.00 0.00 0.00 69 1019.9
20260830150913 75 201 3.0 10.0 0.00 0.00 0.00 69 1020.0
20260830150617 74 231 5.0 10.0 0.00 0.00 0.00 68 1020.1
20260830150418 74 203 5.0 10.0 0.00 0.00 0.00 69 1020.1
20260830150114 74 177 4.0 7.0 0.00 0.00 0.00 70 1020.1
20260830145912 74 223 3.0 7.0 0.00 0.00 0.00 70 1020.2
20260830145633 74 200 2.0 7.0 0.00 0.00 0.00 71 1020.2
20260830145415 74 200 3.0 7.0 0.00 0.00 0.00 71 1020.3
20260830145129 74 208 4.0 8.0 0.00 0.00 0.00 69 1020.4
20260830144939 74 208 4.0 10.0 0.00 0.00 0.00 71 1020.4
20260830144612 73 212 5.0 10.0 0.00 0.00 0.00 69 1020.4
20260830144416 73 187 4.0 10.0 0.00 0.00 0.00 71 1020.5
20260830144137 73 238 5.0 10.0 0.00 0.00 0.00 70 1020.5
20260830143920 73 190 4.0 8.0 0.00 0.00 0.00 71 1020.4
20260830143640 73 184 3.0 7.0 0.00 0.00 0.00 71 1020.4
20260830143421 73 194 4.0 7.0 0.00 0.00 0.00 71 1020.5
20260830143115 73 174 4.0 7.0 0.00 0.00 0.00 71 1020.5
20260830142919 73 192 3.0 7.0 0.00 0.00 0.00 72 1020.5
20260830142621 73 196 4.0 8.0 0.00 0.00 0.00 71 1020.4
20260830142424 73 220 4.0 8.0 0.00 0.00 0.00 72 1020.5
20260830142118 73 205 4.0 8.0 0.00 0.00 0.00 70 1020.5
20260830141922 73 220 4.0 8.0 0.00 0.00 0.00 70 1020.5
20260830141615 73 222 4.0 9.0 0.00 0.00 0.00 71 1020.5
20260830141425 73 214 4.0 9.0 0.00 0.00 0.00 72 1020.5
20260830141119 72 233 3.0 9.0 0.00 0.00 0.00 71 1020.5
20260830140924 72 237 6.0 9.0 0.00 0.00 0.00 72 1020.5
20260830140645 72 193 4.0 8.0 0.00 0.00 0.00 74 1020.4
20260830140407 72 199 5.0 7.0 0.00 0.00 0.00 75 1020.5
20260830140120 71 203 4.0 8.0 0.00 0.00 0.00 75 1020.5
20260830135920 71 187 4.0 8.0 0.00 0.00 0.00 76 1020.5
20260830135617 71 210 3.0 8.0 0.00 0.00 0.00 76 1020.5
20260830135423 71 196 5.0 8.0 0.00 0.00 0.00 75 1020.5
20260830135121 71 183 3.0 6.0 0.00 0.00 0.00 79 1020.5
20260830134921 71 235 2.0 5.0 0.00 0.00 0.00 80 1020.5
20260830134619 71 162 3.0 5.0 0.00 0.00 0.00 81 1020.5
20260830134419 70 144 2.0 5.0 0.00 0.00 0.00 81 1020.6
20260830134144 70 171 3.0 6.0 0.00 0.00 0.00 81 1020.7
20260830133924 70 183 2.0 6.0 0.00 0.00 0.00 82 1020.6
20260830133621 69 180 3.0 6.0 0.00 0.00 0.00 82 1020.7
20260830133429 69 200 3.0 6.0 0.00 0.00 0.00 84 1020.7
20260830133126 68 222 4.0 7.0 0.00 0.00 0.00 84 1020.7
20260830132906 68 210 4.0 7.0 0.00 0.00 0.00 85 1020.7
20260830132624 68 181 2.0 5.0 0.00 0.00 0.00 85 1020.7
20260830132424 67 208 3.0 5.0 0.00 0.00 0.00 85 1020.7
20260830132122 67 207 2.0 5.0 0.00 0.00 0.00 85 1020.7
20260830131929 67 186 3.0 5.0 0.00 0.00 0.00 85 1020.7
20260830131607 67 168 2.0 5.0 0.00 0.00 0.00 87 1020.7
20260830131407 67 177 2.0 4.0 0.00 0.00 0.00 87 1020.7
20260830131125 67 213 2.0 4.0 0.00 0.00 0.00 87 1020.8
20260830130932 66 214 2.0 6.0 0.00 0.00 0.00 87 1020.8
20260830130629 66 214 2.0 6.0 0.00 0.00 0.00 87 1020.9
20260830130410 66 214 2.0 6.0 0.00 0.00 0.00 87 1020.9
20260830130106 66 239 2.0 4.0 0.00 0.00 0.00 88 1021.1
20260830125953 66 239 2.0 4.0 0.00 0.00 0.00 88 1021.0
20260830125607 66 239 1.0 3.0 0.00 0.00 0.00 89 1021.0
20260830125407 65 239 2.0 5.0 0.00 0.00 0.00 89 1021.1
20260830125124 65 239 2.0 5.0 0.00 0.00 0.00 89 1021.0
20260830124930 65 239 2.0 5.0 0.00 0.00 0.00 90 1021.1
20260830124627 65 239 2.0 5.0 0.00 0.00 0.00 91 1021.0
20260830124406 65 261 1.0 3.0 0.00 0.00 0.00 93 1021.1
20260830124123 64 261 1.0 4.0 0.00 0.00 0.00 94 1021.1
20260830123930 64 261 1.0 4.0 0.00 0.00 0.00 94 1021.1
20260830123607 63 261 2.0 4.0 0.00 0.00 0.00 94 1021.2
20260830123406 63 261 2.0 4.0 0.00 0.00 0.00 95 1021.1
20260830123123 63 261 2.0 4.0 0.00 0.00 0.00 95 1021.2
20260830122924 63 261 3.0 4.0 0.00 0.00 0.00 96 1021.2
20260830122627 62 262 1.0 3.0 0.00 0.00 0.00 96 1021.2
20260830122409 62 262 2.0 3.0 0.00 0.00 0.00 96 1021.1
20260830122146 62 262 2.0 3.0 0.00 0.00 0.00 96 1021.1
20260830121905 62 262 1.0 3.0 0.00 0.00 0.00 96 1021.1
20260830121608 62 262 2.0 3.0 0.00 0.00 0.00 96 1021.2
20260830121409 61 262 2.0 2.0 0.00 0.00 0.00 97 1021.1
20260830121106 61 262 1.0 2.0 0.00 0.00 0.00 97 1021.1
20260830120931 61 262 1.0 2.0 0.00 0.00 0.00 97 1021.2
20260830120629 61 262 0.0 0.0 0.00 0.00 0.00 97 1021.1
20260830120409 61 262 0.0 0.0 0.00 0.00 0.00 97 1021.2
20260830120107 61 262 0.0 0.0 0.00 0.00 0.00 97 1021.3
20260830115907 61 262 0.0 0.0 0.00 0.00 0.00 97 1021.3
20260830115632 61 262 0.0 0.0 0.00 0.00 0.00 97 1021.3
20260830115431 60 262 0.0 0.0 0.00 0.00 0.00 97 1021.3
20260830115109 60 262 0.0 0.0 0.00 0.00 0.00 97 1021.3
20260830114909 60 262 0.0 0.0 0.00 0.00 0.00 97 1021.3
20260830114607 60 262 0.0 0.0 0.00 0.00 0.00 97 1021.3
20260830114407 60 262 0.0 0.0 0.00 0.00 0.00 97 1021.3
20260830114131 60 262 0.0 0.0 0.00 0.00 0.00 97 1021.3
20260830113912 60 262 0.0 0.0 0.00 0.00 0.00 97 1021.3
20260830113609 60 262 0.0 0.0 0.00 0.00 0.00 97 1021.4
20260830113410 60 262 0.0 0.0 0.00 0.00 0.00 97 1021.4
20260830113127 60 262 0.0 0.0 0.00 0.00 0.00 97 1021.4
20260830112933 60 262 0.0 1.0 0.00 0.00 0.00 97 1021.5
20260830112608 60 262 0.0 1.0 0.00 0.00 0.00 97 1021.5
20260830112408 60 262 0.0 1.0 0.00 0.00 0.00 97 1021.4
20260830112112 60 262 1.0 1.0 0.00 0.00 0.00 97 1021.4
20260830111913 59 262 0.0 0.0 0.00 0.00 0.00 97 1021.4
20260830111609 59 262 0.0 0.0 0.00 0.00 0.00 97 1021.3
20260830111411 59 262 0.0 0.0 0.00 0.00 0.00 97 1021.3
20260830111114 59 262 0.0 0.0 0.00 0.00 0.00 96 1021.3
20260830110915 59 262 0.0 0.0 0.00 0.00 0.00 96 1021.3
20260830110612 59 262 0.0 0.0 0.00 0.00 0.00 96 1021.2
20260830110413 59 262 0.0 0.0 0.00 0.00 0.00 96 1021.3
20260830110111 59 262 0.0 0.0 0.00 0.00 0.00 96 1021.3
20260830105917 59 262 0.0 0.0 0.00 0.00 0.00 97 1021.2
20260830105637 59 262 0.0 0.0 0.00 0.00 0.00 97 1021.2
20260830105416 59 262 0.0 0.0 0.00 0.00 0.00 97 1021.2
20260830105113 59 262 0.0 0.0 0.00 0.00 0.00 97 1021.2
20260830104920 59 262 0.0 0.0 0.00 0.00 0.00 97 1021.2
20260830104616 59 262 0.0 0.0 0.00 0.00 0.00 97 1021.2
20260830104417 59 262 0.0 0.0 0.00 0.00 0.00 96 1021.2
20260830104115 59 262 0.0 0.0 0.00 0.00 0.00 96 1021.1
20260830103942 59 262 0.0 0.0 0.00 0.00 0.00 96 1021.1
20260830103619 59 262 0.0 0.0 0.00 0.00 0.00 96 1021.1
20260830103420 59 262 0.0 0.0 0.00 0.00 0.00 96 1021.1
20260830103117 59 262 0.0 0.0 0.00 0.00 0.00 96 1021.1
20260830102924 59 262 0.0 0.0 0.00 0.00 0.00 96 1021.1
20260830102621 59 262 0.0 0.0 0.00 0.00 0.00 96 1021.1
20260830102421 59 262 0.0 0.0 0.00 0.00 0.00 96 1021.1
20260830102118 59 262 0.0 0.0 0.00 0.00 0.00 96 1021.2
20260830101946 59 262 0.0 0.0 0.00 0.00 0.00 96 1021.1
20260830101619 59 262 0.0 0.0 0.00 0.00 0.00 96 1021.2
20260830101423 59 262 0.0 0.0 0.00 0.00 0.00 96 1021.2
20260830101116 59 262 0.0 0.0 0.00 0.00 0.00 96 1021.2
20260830100928 59 262 0.0 0.0 0.00 0.00 0.00 96 1021.2
20260830100621 59 262 0.0 0.0 0.00 0.00 0.00 96 1021.2
20260830100426 59 262 0.0 0.0 0.00 0.00 0.00 96 1021.3
20260830100127 59 262 0.0 0.0 0.00 0.00 0.00 96 1021.3
20260830095936 59 262 0.0 0.0 0.00 0.00 0.00 96 1021.3
20260830095630 59 262 0.0 0.0 0.00 0.00 0.00 96 1021.3
20260830095413 59 262 0.0 0.0 0.00 0.00 0.00 96 1021.3
20260830095106 59 262 0.0 0.0 0.00 0.00 0.00 96 1021.3
20260830094934 59 262 0.0 0.0 0.00 0.00 0.00 96 1021.3
20260830094611 59 262 0.0 0.0 0.00 0.00 0.00 96 1021.2
20260830094412 59 262 0.0 0.0 0.00 0.00 0.00 96 1021.2
20260830094115 59 262 0.0 0.0 0.00 0.00 0.00 96 1021.2
20260830093914 59 262 0.0 0.0 0.00 0.00 0.00 96 1021.2
20260830093612 59 262 0.0 0.0 0.00 0.00 0.00 96 1021.2
20260830093413 59 262 0.0 0.0 0.00 0.00 0.00 96 1021.3
20260830093111 59 262 0.0 0.0 0.00 0.00 0.00 96 1021.3
20260830092917 59 262 0.0 0.0 0.00 0.00 0.00 96 1021.3
20260830092615 59 262 0.0 0.0 0.00 0.00 0.00 96 1021.3
20260830092416 59 262 0.0 0.0 0.00 0.00 0.00 96 1021.3
20260830092114 59 262 0.0 0.0 0.00 0.00 0.00 96 1021.3
20260830091913 59 262 0.0 0.0 0.00 0.00 0.00 96 1021.2
20260830091616 59 262 0.0 0.0 0.00 0.00 0.00 96 1021.2
20260830091415 59 262 0.0 0.0 0.00 0.00 0.00 96 1021.3
20260830091111 59 262 0.0 0.0 0.00 0.00 0.00 96 1021.3
20260830090939 59 262 0.0 0.0 0.00 0.00 0.00 96 1021.3
20260830090616 59 262 0.0 0.0 0.00 0.00 0.00 96 1021.3
20260830090417 59 262 0.0 0.0 0.00 0.00 0.00 96 1021.3
20260830090115 59 262 0.0 0.0 0.00 0.00 0.00 96 1021.3
20260830085923 59 262 0.0 0.0 0.00 0.00 0.00 96 1021.4
20260830085619 59 262 0.0 0.0 0.00 0.00 0.00 96 1021.3
20260830085420 59 262 0.0 0.0 0.00 0.00 0.00 96 1021.3
20260830085139 59 262 0.0 0.0 0.00 0.00 0.00 96 1021.4
20260830084925 59 262 0.0 0.0 0.00 0.00 0.00 96 1021.4
20260830084622 59 262 0.0 0.0 0.00 0.00 0.00 96 1021.4
20260830084423 59 262 0.0 0.0 0.00 0.00 0.00 96 1021.3
20260830084148 59 262 0.0 0.0 0.00 0.00 0.00 96 1021.3
20260830083927 59 262 0.0 0.0 0.00 0.00 0.00 96 1021.4
20260830083625 59 262 0.0 0.0 0.00 0.00 0.00 96 1021.4
20260830083425 59 262 0.0 0.0 0.00 0.00 0.00 96 1021.5
20260830083123 59 262 0.0 0.0 0.00 0.00 0.00 96 1021.5
20260830082930 59 262 0.0 0.0 0.00 0.00 0.00 96 1021.4
20260830082627 59 262 0.0 0.0 0.00 0.00 0.00 96 1021.6
20260830082408 59 262 0.0 0.0 0.00 0.00 0.00 96 1021.5
20260830082146 59 262 0.0 0.0 0.00 0.00 0.00 96 1021.5
20260830081932 59 262 0.0 0.0 0.00 0.00 0.00 96 1021.5
20260830081630 59 262 0.0 0.0 0.00 0.00 0.00 96 1021.4
20260830081410 59 262 0.0 0.0 0.00 0.00 0.00 96 1021.4
20260830081108 59 262 0.0 0.0 0.00 0.00 0.00 96 1021.5
20260830080914 59 262 0.0 0.0 0.00 0.00 0.00 96 1021.5
20260830080633 58 262 0.0 0.0 0.00 0.00 0.00 96 1021.5
20260830080413 58 262 0.0 0.0 0.00 0.00 0.00 96 1021.5
20260830080117 58 262 0.0 0.0 0.00 0.00 0.00 96 1021.5
20260830075917 58 262 0.0 0.0 0.00 0.00 0.00 96 1021.5
20260830075615 58 262 0.0 0.0 0.00 0.00 0.00 96 1021.5
20260830075416 58 262 0.0 0.0 0.00 0.00 0.00 96 1021.5
20260830075141 58 262 0.0 0.0 0.00 0.00 0.00 96 1021.5
20260830074920 58 262 0.0 0.0 0.00 0.00 0.00 96 1021.5
20260830074618 58 262 0.0 0.0 0.00 0.00 0.00 95 1021.5
20260830074419 58 262 0.0 0.0 0.00 0.00 0.00 95 1021.5
20260830074116 58 262 0.0 0.0 0.00 0.00 0.00 95 1021.5
20260830073922 58 262 0.0 0.0 0.00 0.00 0.00 95 1021.6
20260830073620 58 262 0.0 0.0 0.00 0.00 0.00 95 1021.6
20260830073421 58 262 0.0 0.0 0.00 0.00 0.00 95 1021.6
20260830073118 58 262 0.0 1.0 0.00 0.00 0.00 96 1021.6
20260830072946 59 262 0.0 1.0 0.00 0.00 0.00 96 1021.6
20260830072623 59 262 0.0 1.0 0.00 0.00 0.00 96 1021.6
20260830072424 59 262 0.0 2.0 0.00 0.00 0.00 96 1021.6
20260830072121 59 262 0.0 2.0 0.00 0.00 0.00 96 1021.6
20260830071927 59 262 0.0 2.0 0.00 0.00 0.00 96 1021.7
20260830071624 59 262 1.0 2.0 0.00 0.00 0.00 96 1021.7
20260830071425 59 262 1.0 2.0 0.00 0.00 0.00 96 1021.7
20260830071122 58 262 0.0 1.0 0.00 0.00 0.00 96 1021.7
20260830070929 58 262 0.0 1.0 0.00 0.00 0.00 95 1021.7
20260830070626 58 262 0.0 1.0 0.00 0.00 0.00 96 1021.6
20260830070446 58 262 0.0 1.0 0.00 0.00 0.00 96 1021.6
20260830070127 58 262 0.0 1.0 0.00 0.00 0.00 95 1021.5
20260830065930 58 262 0.0 1.0 0.00 0.00 0.00 95 1021.5
20260830065645 58 262 0.0 1.0 0.00 0.00 0.00 95 1021.5
20260830065408 58 262 0.0 0.0 0.00 0.00 0.00 95 1021.6
20260830065128 58 262 0.0 0.0 0.00 0.00 0.00 95 1021.5
20260830064913 58 262 0.0 0.0 0.00 0.00 0.00 95 1021.5
20260830064606 58 262 0.0 1.0 0.00 0.00 0.00 95 1021.5
20260830064411 59 262 0.0 1.0 0.00 0.00 0.00 95 1021.5
20260830064125 59 262 0.0 1.0 0.00 0.00 0.00 95 1021.4
20260830063936 59 262 0.0 1.0 0.00 0.00 0.00 95 1021.4
20260830063609 58 262 0.0 1.0 0.00 0.00 0.00 95 1021.4
20260830063413 59 262 0.0 1.0 0.00 0.00 0.00 95 1021.5
20260830063107 59 262 0.0 1.0 0.00 0.00 0.00 95 1021.6
20260830062919 59 262 0.0 1.0 0.00 0.00 0.00 95 1021.6
20260830062611 59 262 0.0 1.0 0.00 0.00 0.00 95 1021.6
20260830062416 59 262 0.0 0.0 0.00 0.00 0.00 95 1021.5
20260830062110 59 262 0.0 0.0 0.00 0.00 0.00 95 1021.5
20260830061914 59 262 0.0 0.0 0.00 0.00 0.00 95 1021.5
20260830061614 59 262 0.0 0.0 0.00 0.00 0.00 95 1021.6
20260830061418 59 262 0.0 1.0 0.00 0.00 0.00 95 1021.5
20260830061112 59 262 0.0 1.0 0.00 0.00 0.00 95 1021.6
20260830060917 59 262 0.0 1.0 0.00 0.00 0.00 95 1021.6
20260830060609 59 262 0.0 1.0 0.00 0.00 0.00 95 1021.7
20260830060420 59 262 0.0 1.0 0.00 0.00 0.00 95 1021.6
20260830060114 59 262 0.0 2.0 0.00 0.00 0.00 95 1021.6
20260830055918 59 262 0.0 2.0 0.00 0.00 0.00 95 1021.6
20260830055612 59 262 1.0 2.0 0.00 0.00 0.00 95 1021.6
20260830055415 59 262 0.0 1.0 0.00 0.00 0.00 95 1021.6
20260830055108 59 262 0.0 2.0 0.00 0.00 0.00 94 1021.6
20260830054918 59 262 0.0 2.0 0.00 0.00 0.00 94 1021.6
20260830054633 59 262 1.0 2.0 0.00 0.00 0.00 94 1021.6
20260830054443 59 262 1.0 2.0 0.00 0.00 0.00 94 1021.6
20260830054115 59 262 1.0 1.0 0.00 0.00 0.00 94 1021.6
20260830053920 59 262 0.0 1.0 0.00 0.00 0.00 94 1021.6
20260830053613 59 262 0.0 1.0 0.00 0.00 0.00 94 1021.6
20260830053424 59 262 0.0 1.0 0.00 0.00 0.00 94 1021.5
20260830053118 59 262 0.0 0.0 0.00 0.00 0.00 94 1021.5
20260830052921 59 262 0.0 0.0 0.00 0.00 0.00 94 1021.5
20260830052614 59 262 0.0 0.0 0.00 0.00 0.00 94 1021.5
20260830052419 59 262 0.0 0.0 0.00 0.00 0.00 94 1021.4
20260830052119 59 262 0.0 2.0 0.00 0.00 0.00 94 1021.4
20260830051923 59 262 0.0 3.0 0.00 0.00 0.00 94 1021.4
20260830051615 59 262 0.0 3.0 0.00 0.00 0.00 94 1021.4
20260830051420 59 262 2.0 3.0 0.00 0.00 0.00 94 1021.5
20260830051120 59 262 1.0 2.0 0.00 0.00 0.00 94 1021.4
20260830050924 59 262 0.0 2.0 0.00 0.00 0.00 93 1021.5
20260830050618 59 262 0.0 0.0 0.00 0.00 0.00 93 1021.4
20260830050423 59 262 0.0 0.0 0.00 0.00 0.00 93 1021.4
20260830050116 59 262 0.0 0.0 0.00 0.00 0.00 94 1021.4
20260830045925 59 262 0.0 0.0 0.00 0.00 0.00 93 1021.5
20260830045619 59 262 0.0 1.0 0.00 0.00 0.00 93 1021.5
20260830045445 59 262 0.0 1.0 0.00 0.00 0.00 93 1021.5
20260830045117 59 262 0.0 1.0 0.00 0.00 0.00 93 1021.5
20260830044928 60 262 0.0 1.0 0.00 0.00 0.00 93 1021.5
20260830044621 60 262 0.0 1.0 0.00 0.00 0.00 93 1021.5
20260830044424 60 262 0.0 0.0 0.00 0.00 0.00 93 1021.4
20260830044118 60 262 0.0 0.0 0.00 0.00 0.00 93 1021.4
20260830043923 60 262 0.0 0.0 0.00 0.00 0.00 93 1021.4
20260830043642 60 262 0.0 1.0 0.00 0.00 0.00 93 1021.4
20260830043421 60 262 0.0 1.0 0.00 0.00 0.00 93 1021.4
20260830043119 60 262 0.0 1.0 0.00 0.00 0.00 93 1021.3
20260830042924 60 262 0.0 1.0 0.00 0.00 0.00 93 1021.4
20260830042644 60 262 0.0 0.0 0.00 0.00 0.00 93 1021.5
20260830042423 60 262 0.0 0.0 0.00 0.00 0.00 93 1021.5
20260830042127 60 262 0.0 0.0 0.00 0.00 0.00 93 1021.4
20260830041946 60 262 0.0 0.0 0.00 0.00 0.00 93 1021.4
20260830041622 60 262 0.0 0.0 0.00 0.00 0.00 93 1021.4
20260830041428 60 262 0.0 0.0 0.00 0.00 0.00 93 1021.4
20260830041126 60 262 0.0 0.0 0.00 0.00 0.00 92 1021.4